Weather in Nobel

Ukraine / Rovno District     51°52′10″N   25°45′51″E
temp.,
°C
wind,
m/s
gust,
m/s
humid.,
%
clouds,
%
prec.,
mm/h
press.,
hPa
HPBL,
m
25 february, thu
thu2523:00+4wsw3499100 0.0 103172
02:00+4w4799100 0.0 1031128
05:00+4wsw36100100 0.0 1030105
08:00+4w3599100 0.0 103094
11:00+5w35100100 0.0 1030149
14:00+8w359385 0.0 1029278
17:00+7wsw349418 0.0 102855
20:00+5sw34939 0.0 102854
26 february, fri
fri2623:00+4sw46910 0.0 102697
02:00+4wsw47890 0.0 1025142
05:00+3wsw49910 0.0 1024176
08:00+3w410940 0.0 1024220
11:00+8w6109046 0.0 1023466
14:00+10wnw7117970 0.0 1022824
17:00+8w51278100 0.0 1021728
20:00+6wnw51376100 0.0 1021671
27 february, sat
sat2723:00+4w61479100 0.0 1020634
02:00+3wnw6128368 0.0 1020717
05:00+4wnw71480100 0.0 1018822
08:00+4wnw81484100 0.0 1018996
11:00+5nw81471100 0.1 10191488
14:00+5nw81365100 0.1 10201571
17:00+5nnw7126799 0.1 10211271
20:00+4nnw61272100 0.1 1022972
28 february, sun
sun2823:00+3nnw61175100 0.1 10241043
02:000nnw4108578 0.1 1027410
05:00−1nnw49880 0.0 1028404
08:00−1nw588617 0.0 1029513
11:00+1nw5774100 0.0 1029793
14:00+3nnw5869100 0.0 1029892
17:00+3nw486689 0.0 1029567
20:00+1nw377582 0.0 1030182
1 march, mon
mon123:000nw378353 0.0 1031165
02:00+1wnw489376 0.2 1031342
05:00+1nw3798100 2.8 1030298
08:00+1nnw3598100 3.4 1031263
11:00+2n2496100 0.1 1033265
14:00+4n2280100 0.1 1034523
17:00+4nnw118399 0.1 103523
20:00+1nnw128689 0.1 103622